Location: Ash Swamp
(41.5170°N, 74.6157°W)
Time: 02:26:47
(UTC+00:00)

Cosmos 2278 Rocket - Pass Details

Date: 14 July 2020
Orbit: 841 x 845 km, 71.0° (Epoch: 14 August)

Event Time Altitude Azimuth Distance (km) Brightness Sun altitude
Rises 01:54:39 0° 335° (NNW) 3,412 6.8 -13.1°
Reaches altitude 10° 01:57:06 10° 335° (NNW) 2,472 5.9 -13.4°
Maximum altitude 02:02:47 85° 248° (WSW) 852 2.2 -14.2°
Enters shadow 02:06:56 19° 161° (SSE) 1,898 3.5 -14.7°
